User: anonymous   Login
Location: Bailleul
(50.3375°N, 2.8513°E)
Time: 02:18:42
(UTC+00:00)
Language:

Cosmos 1536 Rocket - Orbit

View from above orbital plane
View from above orbital plane
View from above satellite
View from above satellite

Ground track
Ground track

The orbit data is extracted from the following two-line orbital elements,

1 14700U 84013B   21269.42238617  .00000114  00000-0  10930-4 0  9994
2 14700  82.5363 137.1954 0018799 213.7371 319.3887 14.83343878 11481
Epoch (UTC): 26 September 2021 10:08:14
Eccentricity: 0.0018799
inclination: 82.5363°
perigee height: 605 km
apogee height: 632 km
right ascension of ascending node: 137.1954°
argument of perigee: 213.7371°
revolutions per day: 14.83343878
mean anomaly at epoch: 319.3887°
orbit number at epoch: 1148

The dashed part of the orbit path shows where the satellite is in the earth's shadow,  

DLR